Tracking 35280 objects as of 7-Sep-2026
HD Live streaming from Space Station
objects crossing your sky now

SL-4 R/B


SL-4 R/B is no longer on orbit


NORAD ID: 4356
Int'l Code: 1970-022B
Launch date: March 27, 1970
Source: Commonwealth of Independent States (former USSR) (CIS)
Launch site: PLESETSK MISSILE AND SPACE COMPLEX (PKMTR)
Decay date: 1970-04-01

Note: This is a ROCKET BODY
Your satellite tracking list
Your tracking list is empty




NASA's NSSDC Master Catalog

Two Line Element Set (TLE):
1 04356U 70022  B 70090.37816714  .04193539 +00000-0 +00000-0 0  9996
2 04356 072.8536 355.5164 0029699 046.9624 313.4049 16.29977796000632
Source of the keplerian elements: AFSPC